Flag for Brazil

Past Weather in Londrina, Paraná, Brazil — Yesterday and Last 2 Weeks

Now
46 °F

Clear.


Feels Like: 46 °F
Forecast: 80 / 54 °F
Wind: 2 mph from Northeast

Location: Curitiba Aeroporto

Current Time: Jul 11, 2020 at 6:16:07 am

Latest Report: Jul 11, 2020 at 5:00 am


Visibility: 10 mi

Pressure: 30.09 "Hg (27.92 "Hg at 615m altitude)

Humidity: 93%

Dew Point: 45 °F

Location of LondrinaLocation

Past Weather in Londrina — Graph

°F

Londrina Temperature Yesterday

Maximum temperature yesterday: 70 °F (at 3:00 pm)
Minimum temperature yesterday: 34 °F (at 7:00 am)
Average temperature yesterday: 51 °F

High & Low Weather Summary for the Past Weeks

 TemperatureHumidityPressure
High73 °F (Jul 5, 1:00 pm)100% (Jun 26, 6:00 am)30.30 "Hg (Jun 26, 6:00 am)
Low34 °F (Jul 10, 7:00 am)27% (Jul 4, 3:00 pm)29.71 "Hg (Jun 30, 3:00 pm)
Average54 °F83%30.08 "Hg
* Reported Jun 26 5:00 am — Jul 11 5:00 am, Londrina. Weather by CustomWeather, © 2020

Note: Actual official high and low records may vary slightly from our data, if they occured in-between our weather recording intervals... More about our weather records

Londrina Weather History for the Previous 24 Hours

Scroll right to see more
 ConditionsComfort  
Time TempWeatherWind HumidityBarometerVisibility
5:00 am
Sat, Jul 11
46 °FClear.2 mph93%30.09 "Hg10 mi
4:00 am46 °FClear.3 mph100%30.12 "Hg10 mi
3:00 am50 °FClear.2 mph94%30.12 "Hg10 mi
2:00 am50 °FClear.2 mph94%30.12 "Hg6 mi
1:00 am50 °FClear.6 mph94%30.12 "Hg6 mi
12:00 am52 °FClear.3 mph88%30.12 "Hg10 mi
11:00 pm
Fri, Jul 10
52 °FClear.6 mph88%30.12 "Hg10 mi
10:00 pm52 °FClear.7 mph88%30.12 "Hg10 mi
9:00 pm54 °FClear.5 mph82%30.12 "Hg10 mi
8:00 pm52 °FClear.5 mph82%30.12 "Hg10 mi
7:00 pm54 °FClear.5 mph82%30.12 "Hg10 mi
6:00 pm59 °FClear.6 mph68%30.12 "Hg10 mi
5:00 pm68 °FSunny.7 mph38%30.09 "Hg10 mi
4:00 pm70 °FSunny.7 mph35%30.12 "Hg10 mi
3:00 pm70 °FSunny.7 mph35%30.12 "Hg10 mi
2:00 pm66 °FSunny.7 mph40%30.12 "Hg10 mi
1:00 pm66 °FSunny.9 mph32%30.15 "Hg10 mi
12:00 pm63 °FSunny.10 mph34%30.18 "Hg10 mi
11:00 am57 °FSunny.5 mph63%30.21 "Hg10 mi
10:00 am52 °FSunny.5 mph77%30.24 "Hg10 mi
9:00 am45 °FSunny.6 mph87%30.21 "Hg10 mi
8:00 am37 °FSunny.2 mph93%30.21 "Hg10 mi
7:00 am34 °FClear.3 mph100%30.21 "Hg6 mi
6:00 am36 °FClear.2 mph93%30.18 "Hg6 mi
Weather by CustomWeather, © 2020

See weather overview